Location: Anciles
(42.5833°N, 0.5167°E)
Time: 14:24:45
(UTC+00:00)

BREEZE-M R/B - Pass Details

Date: 10 December 2019
Orbit: 309 x 4546 km, 49.7° (Epoch: 25 January)

Event Time Altitude Azimuth Distance (km) Brightness Sun altitude
Rises 18:01:08 0° 288° (WNW) 3,879 8.1 -17.1°
Reaches altitude 10° 18:04:54 10° 298° (WNW) 2,317 6.6 -17.8°
Maximum altitude 18:09:09 29° 360° (N) 935 3.8 -18.5°
Enters shadow 18:09:31 29° 12° (NNE) 918 3.7 -18.6°
